User: anonymous   Login
Location: Sevilla
(37.3933°N, 5.9839°W)
Time: 03:37:20
(UTC+02:00)
Language:

Vanguard 1 - Orbit

View from above orbital plane
View from above orbital plane
View from above satellite
View from above satellite

Ground track
Ground track

The orbit data is extracted from the following two-line orbital elements,

1 00005U 58002B   24164.03035219  .00000995  00000-0  12981-2 0  9996
2 00005  34.2467  63.1054 1841233  64.3493 313.5587 10.85415209363361
Epoch (UTC): 12 June 2024 00:43:42
Eccentricity: 0.1841233
inclination: 34.2467°
perigee height: 652 km
apogee height: 3825 km
right ascension of ascending node: 63.1054°
argument of perigee: 64.3493°
revolutions per day: 10.85415209
mean anomaly at epoch: 313.5587°
orbit number at epoch: 36336

The dashed part of the orbit path shows where the satellite is in the earth's shadow,  

DLR